Regional Weather Roundup
Issued by NWS Mobile, AL

Home | Current Version | Previous Version | Text Only | Print | Product List | Glossary On
Versions: 1 2 3 4 5 6 7 8 9 10 11 12 13 14 15 16 17 18 19 20 21 22 23 24 25 26 27
000
ASUS44 KMOB 230613
RWRMOB
REGIONAL WEATHER ROUNDUP
NATIONAL WEATHER SERVICE MOBILE AL
100 AM CDT MON OCT 23 2017

NOTE: "FAIR" INDICATES FEW OR NO CLOUDS BELOW 12,000 FEET WITH NO
      SIGNIFICANT WEATHER AND/OR OBSTRUCTIONS TO VISIBILITY.

  * THESE STATIONS ARE PART OF THE UNIVERSITY OF SOUTH ALABAMA
    MESONET AND ARE NOT UNDER NWS OR FAA QUALITY CONTROL.

ALZ061>064-230700-
COASTAL ALABAMA

CITY           SKY/WX    TMP DP  RH WIND       PRES   REMARKS
MOBILE REG APT CLOUDY    68  67  96 CALM      29.99F FOG
6HR MIN TEMP:  68; 6HR MAX TEMP:  69; 6HR PCP: TRACE;

BROOKLEY FIELD CLOUDY    70  70 100 W5        30.00R FOG
6HR MIN TEMP:  70; 6HR MAX TEMP:  72; 6HR PCP:  0.01;

USA CAMPUS*    NOT AVBL
DOG RIVER*     NOT AVBL


CITY           SKY/WX    TMP DP  RH WIND       PRES   REMARKS
GULF SHORES    CLOUDY    74  74 100 SE15G23   29.94S

$$

ALZ051>060-230700-
INTERIOR SOUTHWEST AND SOUTH CENTRAL ALABAMA

CITY           SKY/WX    TMP DP  RH WIND       PRES   REMARKS
GREENVILLE     LGT RAIN  71  67  87 SE7G16    29.96S
6HR MIN TEMP:  71; 6HR MAX TEMP:  72; 6HR PCP:  3.57;

EVERGREEN      CLOUDY    70  68  93 S6        29.97R
6HR MIN TEMP:  69; 6HR MAX TEMP:  70; 6HR PCP:  1.46;

ATMORE*          N/A    N/A N/A N/A S5        28.58F
ANDALUSIA/OPP  HVY RAIN  73  70  90 VRB6      29.99S FOG
6HR MIN TEMP:  72; 6HR MAX TEMP:  78; 6HR PCP:  1.77;

ANDALUSIA*       N/A     70  70 100 SE9       29.99R
FLORALA APT    HVY RAIN  70  69  97 S7        30.02F FOG
6HR MIN TEMP:  70; 6HR MAX TEMP:  77; 6HR PCP:  3.77;

FLORALA*         N/A     70  70 100 CALM      30.68F

$$

FLZ001>006-230700-
WESTERN FLORIDA PANHANDLE

CITY           SKY/WX    TMP DP  RH WIND       PRES   REMARKS
PENSACOLA      CLOUDY    75  69  81 SE15      29.94F
6HR MIN TEMP:  72; 6HR MAX TEMP:  79; 6HR PCP:  1.98;

NAS PENSACOLA  CLOUDY    75  70  84 SE14      29.93F
6HR MIN TEMP:  71; 6HR MAX TEMP:  78; 6HR PCP:  0.56;

MILTON         CLOUDY    72  50  46 SE14      29.95F
6HR MIN TEMP:  69; 6HR MAX TEMP:  73; 6HR PCP:  3.39;

WHTNG S FIELD  LGT RAIN  75  70  84 S10       29.95F
6HR MIN TEMP:  72; 6HR MAX TEMP:  78; 6HR PCP:  3.62;



CITY           SKY/WX    TMP DP  RH WIND       PRES   REMARKS
JAY*           NOT AVBL
DUKE FIELD     PTCLDY    72  70  94 S6          N/A
CRESTVIEW      LGT RAIN  71  70  96 VRB5      29.99F
6HR MIN TEMP:  70; 6HR MAX TEMP:  78; 6HR PCP:  3.41;

VALPARAISO     LGT RAIN  73  70  91 CALM      29.96F
6HR MIN TEMP:  71; 6HR MAX TEMP:  79; 6HR PCP:  3.07;

DESTIN         LGT RAIN  77  70  79 S9        29.96F
6HR MIN TEMP:  74; 6HR MAX TEMP:  80; 6HR PCP:  2.60;


$$

MSZ076-079-230700-
INTERIOR SOUTHEAST MISSISSIPPI

CITY           SKY/WX    TMP DP  RH WIND       PRES   REMARKS
LEAKESVILLE*   NOT AVBL
AGRICOLA*        N/A     66  66 100 SW5       29.98

$$

MARINE OBSERVATIONS

STATION/POSITION TIME  TEMP    WIND        PRES    WAVE
                       AIR SEA DIR/SP/G            HT/PER
                 (UTC) (F)     (DEG/KT/KT) (MB)    (FT/S)
PASCAGOULA       0548   69     320/  8/  9 1015.2F
PETIT BOIS ISLND 0548   70     330/ 11/ 14 1015.9F
GRAND BAY        0430   69     310/  5     1016.0R
KATRINA CUT      0530   72     320/ 15     1015.2R
CEDAR POINT      0530   72     310/ 10     1015.2R
E DAUPHIN ISLAND 0600   71     300/ 16/ 18 1014.6R
MIDDLE BAY LIGHT 0530   71     310/  4     1015.2R
USCG MOBILE BAY  0548   69 76  290/  6/  8 1015.4R
STATE DOCKS      0548   69 74              1015.3R
MEAHER PARK      0530   70        CALM     1015.6R
WEEKS BAY        0445   70                 1014.0R
FORT MORGAN      0548   73     330/ 12/ 13   N/A
12 S ORANGE BCH  0550      79  290/ 17/ 19 1012.9F   5/ 7
PENSACOLA BAY    0548   75 76              1014.0F
64 S DAUPHIN ISL 0550   79 81  140/  6/  8 1014.4R   5/ 7
67 S FORT MORGAN 0530   77     110/ 16     1013.9S

$$

SELECTED LOCATIONS ACROSS THE REGION

CITY           SKY/WX    TMP DP  RH WIND       PRES   REMARKS
NEW ORLEANS    PTCLDY    66  63  90 NW12      30.04S
GULFPORT       CLEAR     67  65  93 NW9       29.99S
PASCAGOULA AP  CLOUDY    69  66  90 NW3       29.98F
PASCAGOULA*    NOT AVBL
HATTIESBURG    CLEAR     64  63  96 W6        30.02R
LAUREL         CLEAR     62  61  96 W6        30.01F
MERIDIAN       MOCLDY    64  63  96 W3        29.99S
JACKSON        MOCLDY    62  59  90 NW5       30.02F
MONTGOMERY     LGT RAIN  72  67  84 SE17G29   29.95F
TROY           LGT RAIN  69  69 100 S13G21    30.02S
ASHFORD*         N/A     70  70 100 SE9       29.99R
DOTHAN         HVY RAIN  72  72 100 CALM      30.05F FOG
PANAMA CITY    HVY RAIN  74  73  97 SW7       29.98F FOG

$$





USA.gov is the U.S. government's official web portal to all federal, state and local government web resources and services.